Regional Weather Roundup
Issued by NWS

Home | Current Version | Previous Version | Text Only | Print | Product List | Glossary On
Versions: 1 2 3 4 5 6 7 8 9 10 11 12 13 14 15 16 17 18 19 20 21 22 23 24 25 26 27 28 29 30 31 32 33 34 35 36 37 38 39 40 41 42 43 44 45 46 47 48 49 50
000
ASCA44 KEWX 261120
RWRMX

LATIN AMERICA AND CARIBBEAN REGIONAL WEATHER ROUNDUP
NATIONAL WEATHER SERVICE AUSTIN/SAN ANTONIO TX
600 AM CDT TUE JUL 26 2016

NOTE: "FAIR" INDICATED FEW OR NO CLOUDS BELOW 12,000 FEET WITH NO
SIGNIFICANT WEATHER AND/OR OBSTRUCTIONS TO VISIBILITY.

BAJA CALIFORNIA

CITY           SKY/WX    TMP DP  RH WIND       PRES   REMARKS
S.J. DEL CABO    N/A    N/A N/A N/A MISG        N/A
TIJUANA        CLEAR     68  63  83 CALM      29.91F

NORTHWESTERN MEXICO

CITY           SKY/WX    TMP DP  RH WIND       PRES   REMARKS
HERMOSILLO     CLOUDY    86  75  70 N5        29.93  HX  95
OBREGON        MOCLDY    79  73  83 SW3       29.81

NORTHEASTERN MEXICO

CITY           SKY/WX    TMP DP  RH WIND       PRES   REMARKS
CHIHUAHUA      PTCLDY    70  59  68 SW3       30.11
MATAMOROS      PTCLDY    82  77  83 S9        29.86  HX  91
MONCLOVA         N/A    N/A N/A N/A MISG        N/A
MONTERREY      CLEAR     77  70  78 CALM      29.88R
REYNOSA        CLEAR     79  72  78 SE14      29.85
SALTILLO         N/A     66  55  68 SE7       30.18
CD. VICTORIA     N/A    N/A N/A N/A MISG        N/A

WESTERN MEXICO

CITY           SKY/WX    TMP DP  RH WIND       PRES   REMARKS
AGUASCALIENTES MOCLDY    61  57  88 E3        30.23
COLIMA         PTCLDY    73  70  88 CALM      30.00
DEL BAJIO        N/A    N/A N/A N/A MISG        N/A
GUADALAJARA    MOCLDY    59  55  88 CALM      30.15
MAZATLAN       CLOUDY    81  73  78 NW7       29.85S THUNDER
P. VALLARTA    MOCLDY    79  77  94 CALM      29.85R
URUAPAN          N/A    N/A N/A N/A MISG        N/A
ZACATECAS      CLEAR     55  52  88 CALM      30.25S

CENTRAL MEXICO

CITY           SKY/WX    TMP DP  RH WIND       PRES   REMARKS
CUERNAVACA       N/A    N/A N/A N/A MISG        N/A
MEXICO CITY    MOCLDY    57  54  88 NE2       30.29R
MORELIA        MOCLDY    61  59  94 SW3       30.20
POZA RICA        N/A    N/A N/A N/A MISG        N/A
QUERETARO      PTCLDY    55  54  94 CALM      30.27S
S. LUIS POTOSI PTCLDY    59  52  77 NW5       30.22R
TOLUCA         PTCLDY    48  46  93 CALM      30.36S

SOUTHERN MEXICO

CITY           SKY/WX    TMP DP  RH WIND       PRES   REMARKS
ACAPULCO       CLOUDY    81  73  78 N7        29.85F
B. DE HUATULCO   N/A    N/A N/A N/A MISG        N/A
OAXACA         PTCLDY    59  57  94 N5        30.19
P. ESCONDIDO     N/A    N/A N/A N/A MISG        N/A
VERACRUZ       PTCLDY    77  75  94 CALM      29.87

YUCATAN PENINSULA

CITY           SKY/WX    TMP DP  RH WIND       PRES   REMARKS
CAMPECHE       CLEAR     77  75  94 CALM      29.88
CANCUN         MOCLDY    82  79  89 NE6       29.94R HX  93
CHETUMAL         N/A    N/A N/A N/A MISG        N/A
CD. DEL CARMEN PTCLDY    82  75  78 SE13      29.89
COZUMEL        PTCLDY    75  73  94 CALM      29.94S
MERIDA         PTCLDY    79  75  89 E12       29.92S
MINATITLAN     MOCLDY    82  68  61 N12       29.80
TAPACHULA      PTCLDY    75  73  94 CALM      29.80R
TUX. GUTIERREZ   N/A    N/A N/A N/A MISG        N/A
VILLAHERMOSA   PTCLDY    75  72  88 E12       29.89R

CENTRAL AMERICA

CITY           SKY/WX    TMP DP  RH WIND       PRES   REMARKS
BELIZE CITY    TSTM      81  79  94 CALM      29.92
MANAGUA        MOSUNNY   75  72  88 CALM      29.83R

CARIBBEAN

CITY           SKY/WX    TMP DP  RH WIND       PRES   REMARKS
ARUBA          PTCLDY    82  75  78 SE14      29.89
CURACAO        PTCLDY    81  75  83 SE9       29.92R
KINGSTON       PTCLDY    82  73  74 N6        29.92R
NASSAU         PTCLDY    82  75  78 E5        30.08R
SAN JUAN       TSTM      79  79 100 CALM      29.98S
SANTO DOMINGO  PTCLDY    75  73  94 N5        29.97S
ST. CROIX      MOSUNNY   82  77  83 E16       29.98R HX  91
ST. KITTS      MOSUNNY   82  77  83 E10       29.97S HX  91
ST. MAARTEN    MOSUNNY   82  77  83 E10       29.97S HX  91
ST. THOMAS     SUNNY     82  79  89 E10       29.97  HX  93

$$





USA.gov is the U.S. government's official web portal to all federal, state and local government web resources and services.